Time,TemperatureF,DewpointF,PressureIn,WindDirection,WindDirectionDegrees,WindSpeedMPH,WindSpeedGustMPH,Humidity,HourlyPrecipIn,Conditions,Clouds,dailyrainin,SoftwareType,DateUTC
2013-11-18 00:01:00,57.9,57.9,29.77,WSW,248,3.6,7.4,100,-99.99,,,-99.99,WSDL version 420,2013-11-18 05:01:00,
2013-11-18 00:02:00,57.9,57.9,29.77,West,270,2.5,7.4,100,-99.99,,,-99.99,WSDL version 420,2013-11-18 05:02:00,
2013-11-18 00:04:00,57.9,57.9,29.74,WSW,248,2.8,7.4,100,-99.99,,,-99.99,WSDL version 420,2013-11-18 05:04:00,
2013-11-18 00:05:00,57.9,57.9,29.74,WSW,248,4.7,6.3,100,-99.99,,,-99.99,WSDL version 420,2013-11-18 05:05:00,
2013-11-18 00:07:00,57.9,57.9,29.74,SW,219,3.4,6.3,100,-99.99,,,-99.99,WSDL version 420,2013-11-18 05:07:00,
2013-11-18 00:13:00,57.9,57.9,29.74,SW,214,4.8,6.3,100,0.00,,,0.00,WSDL version 420,2013-11-18 05:13:00,
2013-11-18 00:19:00,57.9,57.9,29.74,South,180,2.9,7.8,100,0.00,,,0.00,WSDL version 420,2013-11-18 05:19:00,
2013-11-18 00:25:00,57.9,57.9,29.74,NNW,330,5.8,7.8,100,0.00,,,0.00,WSDL version 420,2013-11-18 05:25:00,
2013-11-18 00:31:00,57.9,57.9,29.74,SSE,158,4.1,8.7,100,0.00,,,0.00,WSDL version 420,2013-11-18 05:31:00,
2013-11-18 00:37:00,57.9,57.9,29.71,SSW,203,4.3,6.5,100,0.00,,,0.00,WSDL version 420,2013-11-18 05:37:00,
2013-11-18 00:43:00,58.0,58.0,29.71,SSE,165,4.0,9.4,100,0.00,,,0.00,WSDL version 420,2013-11-18 05:43:00,
2013-11-18 00:49:00,58.0,58.0,29.71,ENE,68,5.4,9.4,100,0.00,,,0.00,WSDL version 420,2013-11-18 05:49:00,
2013-11-18 00:55:00,58.1,58.1,29.71,SW,225,4.0,7.8,100,-99.99,,,-99.99,WSDL version 420,2013-11-18 05:55:00,
2013-11-18 01:01:00,58.1,58.1,29.71,SSW,203,3.9,7.8,100,-99.99,,,-99.99,WSDL version 420,2013-11-18 06:01:00,
2013-11-18 01:07:00,58.1,58.1,29.71,WSW,240,2.8,5.4,100,-99.99,,,-99.99,WSDL version 420,2013-11-18 06:07:00,
2013-11-18 01:13:00,58.2,58.2,29.71,SW,233,3.4,7.8,100,-99.99,,,-99.99,WSDL version 420,2013-11-18 06:13:00,
2013-11-18 01:19:00,58.2,58.2,29.68,SE,135,3.7,5.8,100,-99.99,,,-99.99,WSDL version 420,2013-11-18 06:19:00,
2013-11-18 01:25:00,58.3,58.3,29.68,South,180,3.9,10.5,100,-99.99,,,-99.99,WSDL version 420,2013-11-18 06:25:00,
2013-11-18 01:31:00,58.5,58.5,29.68,SW,218,3.4,6.5,100,-99.99,,,-99.99,WSDL version 420,2013-11-18 06:31:00,
2013-11-18 01:37:00,58.5,58.5,29.68,WNW,293,3.8,7.6,100,-99.99,,,-99.99,WSDL version 420,2013-11-18 06:37:00,
2013-11-18 01:43:00,58.5,58.5,29.68,SSW,195,4.5,7.6,100,-99.99,,,-99.99,WSDL version 420,2013-11-18 06:43:00,
2013-11-18 01:49:00,58.5,58.5,29.68,West,264,3.1,9.8,100,-99.99,,,-99.99,WSDL version 420,2013-11-18 06:49:00,
2013-11-18 01:55:00,58.5,58.5,29.68,South,180,3.1,9.8,100,-99.99,,,-99.99,WSDL version 420,2013-11-18 06:55:00,
2013-11-18 02:01:00,58.5,58.5,29.68,WNW,300,3.0,8.1,100,-99.99,,,-99.99,WSDL version 420,2013-11-18 07:01:00,
2013-11-18 02:07:00,58.5,58.5,29.68,SW,219,3.8,7.8,100,-99.99,,,-99.99,WSDL version 420,2013-11-18 07:07:00,
2013-11-18 02:13:00,58.5,58.5,29.65,South,180,5.1,7.2,100,-99.99,,,-99.99,WSDL version 420,2013-11-18 07:13:00,
2013-11-18 02:19:00,58.5,58.5,29.62,SW,218,4.1,7.2,100,-99.99,,,-99.99,WSDL version 420,2013-11-18 07:19:00,
2013-11-18 02:25:00,58.5,58.5,29.62,West,278,2.6,10.5,100,-99.99,,,-99.99,WSDL version 420,2013-11-18 07:25:00,
2013-11-18 02:31:00,58.5,58.5,29.62,South,180,6.0,7.2,100,-99.99,,,-99.99,WSDL version 420,2013-11-18 07:31:00,
2013-11-18 02:37:00,58.6,58.5,29.62,SE,135,3.3,7.2,100,-99.99,,,-99.99,WSDL version 420,2013-11-18 07:37:00,
2013-11-18 02:43:00,58.6,58.6,29.62,SSW,203,4.0,6.3,100,0.00,,,0.00,WSDL version 420,2013-11-18 07:43:00,
2013-11-18 02:50:00,58.6,58.6,29.59,South,173,5.7,6.3,100,-99.99,,,-99.99,WSDL version 420,2013-11-18 07:50:00,
2013-11-18 02:56:00,58.8,58.8,29.59,South,188,8.3,8.5,100,-99.99,,,-99.99,WSDL version 420,2013-11-18 07:56:00,
2013-11-18 03:02:00,58.7,58.7,29.59,WSW,240,2.4,8.5,100,-99.99,,,-99.99,WSDL version 420,2013-11-18 08:02:00,
2013-11-18 03:08:00,58.6,58.6,29.59,SSW,203,3.4,6.3,100,-99.99,,,-99.99,WSDL version 420,2013-11-18 08:08:00,
2013-11-18 03:14:00,58.8,58.8,29.59,SSW,210,3.6,5.4,100,-99.99,,,-99.99,WSDL version 420,2013-11-18 08:14:00,
2013-11-18 03:20:00,58.8,58.8,29.56,West,278,4.5,5.4,100,-99.99,,,-99.99,WSDL version 420,2013-11-18 08:20:00,
2013-11-18 03:26:00,58.8,58.8,29.56,SW,218,4.4,5.6,100,0.00,,,0.00,WSDL version 420,2013-11-18 08:26:00,
2013-11-18 03:32:00,58.8,58.8,29.56,West,270,3.2,4.7,100,-99.99,,,-99.99,WSDL version 420,2013-11-18 08:32:00,
2013-11-18 03:38:00,58.6,58.6,29.56,SW,225,3.1,5.6,100,-99.99,,,-99.99,WSDL version 420,2013-11-18 08:38:00,
2013-11-18 03:44:00,58.6,58.6,29.56,WNW,300,3.6,7.6,100,-99.99,,,-99.99,WSDL version 420,2013-11-18 08:44:00,
2013-11-18 03:50:00,58.8,58.8,29.56,SSW,203,4.0,7.6,100,-99.99,,,-99.99,WSDL version 420,2013-11-18 08:50:00,
2013-11-18 03:56:00,58.8,58.8,29.56,WSW,248,4.8,6.3,100,-99.99,,,-99.99,WSDL version 420,2013-11-18 08:56:00,
2013-11-18 04:02:00,58.8,58.8,29.56,WSW,240,4.2,6.3,100,-99.99,,,-99.99,WSDL version 420,2013-11-18 09:02:00,
2013-11-18 04:08:00,58.9,58.9,29.53,SW,233,5.3,6.0,100,-99.99,,,-99.99,WSDL version 420,2013-11-18 09:08:00,
2013-11-18 04:14:00,59.1,59.1,29.53,South,188,4.8,6.0,100,-99.99,,,-99.99,WSDL version 420,2013-11-18 09:14:00,
2013-11-18 04:20:00,59.2,59.2,29.53,SW,225,3.4,6.0,100,-99.99,,,-99.99,WSDL version 420,2013-11-18 09:20:00,
2013-11-18 04:26:00,59.5,59.5,29.53,SSW,210,3.3,12.8,100,-99.99,,,-99.99,WSDL version 420,2013-11-18 09:26:00,
2013-11-18 04:32:00,59.6,59.6,29.53,South,180,4.6,12.8,100,-99.99,,,-99.99,WSDL version 420,2013-11-18 09:32:00,
2013-11-18 04:38:00,58.7,58.7,29.59,South,169,4.5,8.1,100,-99.99,,,-99.99,WSDL version 420,2013-11-18 09:38:00,
2013-11-18 04:44:00,57.1,57.1,29.59,ESE,120,1.7,8.1,100,-99.99,,,-99.99,WSDL version 420,2013-11-18 09:44:00,
2013-11-18 04:50:00,56.1,56.1,29.59,SSE,150,2.2,3.8,100,-99.99,,,-99.99,WSDL version 420,2013-11-18 09:50:00,
2013-11-18 04:56:00,55.5,55.5,29.59,SSW,210,1.8,3.8,100,-99.99,,,-99.99,WSDL version 420,2013-11-18 09:56:00,
2013-11-18 05:02:00,55.0,55.0,29.59,East,86,2.6,4.9,100,-99.99,,,-99.99,WSDL version 420,2013-11-18 10:02:00,
2013-11-18 05:08:00,54.7,54.7,29.59,North,8,0.5,4.9,100,-99.99,,,-99.99,WSDL version 420,2013-11-18 10:08:00,
2013-11-18 05:14:00,54.7,54.7,29.59,NW,315,0.8,1.6,100,-99.99,,,-99.99,WSDL version 420,2013-11-18 10:14:00,
2013-11-18 05:20:00,54.3,54.3,29.56,SW,218,2.8,2.9,100,-99.99,,,-99.99,WSDL version 420,2013-11-18 10:20:00,
2013-11-18 05:26:00,54.0,54.0,29.56,West,263,2.2,2.9,100,-99.99,,,-99.99,WSDL version 420,2013-11-18 10:26:00,
2013-11-18 05:32:00,53.7,53.7,29.56,WSW,248,2.1,3.4,100,-99.99,,,-99.99,WSDL version 420,2013-11-18 10:32:00,
2013-11-18 05:38:00,53.3,53.3,29.56,SW,218,2.3,3.4,100,-99.99,,,-99.99,WSDL version 420,2013-11-18 10:38:00,
2013-11-18 05:45:00,53.0,53.0,29.56,West,281,3.0,7.8,100,-99.99,,,-99.99,WSDL version 420,2013-11-18 10:45:00,
2013-11-18 05:51:00,52.6,52.6,29.56,South,188,2.6,7.8,100,-99.99,,,-99.99,WSDL version 420,2013-11-18 10:51:00,
2013-11-18 05:57:00,52.3,52.3,29.56,SW,225,2.7,4.7,100,-99.99,,,-99.99,WSDL version 420,2013-11-18 10:57:00,
2013-11-18 06:03:00,52.3,52.3,29.56,SSW,203,0.4,2.9,100,-99.99,,,-99.99,WSDL version 420,2013-11-18 11:03:00,
2013-11-18 06:09:00,52.2,52.2,29.56,NW,315,0.7,3.8,100,-99.99,,,-99.99,WSDL version 420,2013-11-18 11:09:00,
2013-11-18 06:15:00,51.9,51.9,29.56,SW,236,4.3,5.8,100,-99.99,,,-99.99,WSDL version 420,2013-11-18 11:15:00,
2013-11-18 06:21:00,51.8,51.8,29.56,WSW,248,0.0,5.8,100,0.00,,,0.00,WSDL version 420,2013-11-18 11:21:00,
2013-11-18 06:27:00,51.7,51.7,29.56,WNW,293,0.7,4.9,100,0.00,,,0.00,WSDL version 420,2013-11-18 11:27:00,
2013-11-18 06:33:00,51.6,51.6,29.56,NE,53,1.7,4.9,100,0.00,,,0.00,WSDL version 420,2013-11-18 11:33:00,
2013-11-18 06:39:00,51.6,51.6,29.56,SW,225,3.0,3.1,100,0.00,,,0.00,WSDL version 420,2013-11-18 11:39:00,
2013-11-18 06:45:00,51.6,51.6,29.56,West,276,2.6,3.4,100,0.00,,,0.00,WSDL version 420,2013-11-18 11:45:00,
2013-11-18 06:51:00,51.6,51.6,29.56,SW,214,2.5,3.4,100,0.00,,,0.00,WSDL version 420,2013-11-18 11:51:00,
2013-11-18 06:57:00,51.4,51.4,29.56,WNW,293,1.5,4.3,100,0.00,,,0.00,WSDL version 420,2013-11-18 11:57:00,
2013-11-18 07:03:00,51.4,51.4,29.56,West,263,1.9,3.6,100,-99.99,,,-99.99,WSDL version 420,2013-11-18 12:03:00,
2013-11-18 07:09:00,51.4,51.4,29.59,WNW,293,2.2,3.4,100,-99.99,,,-99.99,WSDL version 420,2013-11-18 12:09:00,
2013-11-18 07:15:00,51.3,51.3,29.59,West,270,1.8,4.3,100,-99.99,,,-99.99,WSDL version 420,2013-11-18 12:15:00,
2013-11-18 07:21:00,51.3,51.3,29.56,WSW,240,1.8,3.6,100,-99.99,,,-99.99,WSDL version 420,2013-11-18 12:21:00,
2013-11-18 07:27:00,51.3,51.3,29.56,West,264,2.1,3.6,100,-99.99,,,-99.99,WSDL version 420,2013-11-18 12:27:00,
2013-11-18 07:33:00,51.2,51.2,29.59,West,278,2.2,3.6,100,-99.99,,,-99.99,WSDL version 420,2013-11-18 12:33:00,
2013-11-18 07:39:00,51.2,51.2,29.59,WSW,255,2.3,3.6,100,-99.99,,,-99.99,WSDL version 420,2013-11-18 12:39:00,
2013-11-18 07:45:00,51.3,51.3,29.59,SW,225,2.0,4.0,100,-99.99,,,-99.99,WSDL version 420,2013-11-18 12:45:00,
2013-11-18 07:51:00,51.5,51.5,29.59,WSW,255,0.8,4.0,100,-99.99,,,-99.99,WSDL version 420,2013-11-18 12:51:00,
2013-11-18 07:57:00,51.7,51.7,29.59,WSW,243,2.1,4.3,100,-99.99,,,-99.99,WSDL version 420,2013-11-18 12:57:00,
2013-11-18 08:03:00,52.2,52.2,29.59,SW,225,2.6,4.3,100,-99.99,,,-99.99,WSDL version 420,2013-11-18 13:03:00,
2013-11-18 08:09:00,52.5,52.5,29.59,SW,233,2.8,4.0,100,-99.99,,,-99.99,WSDL version 420,2013-11-18 13:09:00,
2013-11-18 08:15:00,52.7,52.7,29.59,WSW,240,2.8,6.0,100,-99.99,,,-99.99,WSDL version 420,2013-11-18 13:15:00,
2013-11-18 08:21:00,52.9,52.9,29.59,SSE,150,2.7,6.0,100,-99.99,,,-99.99,WSDL version 420,2013-11-18 13:21:00,
2013-11-18 08:27:00,-999.0,-99.9,29.59,South,191,1.3,4.0,-999,-99.99,,,-99.99,WSDL version 420,2013-11-18 13:27:00,
2013-11-18 08:33:00,53.1,53.1,29.62,SW,219,1.4,2.7,100,-99.99,,,-99.99,WSDL version 420,2013-11-18 13:33:00,
2013-11-18 08:40:00,53.5,53.5,29.62,WSW,248,1.1,2.0,100,-99.99,,,-99.99,WSDL version 420,2013-11-18 13:40:00,
2013-11-18 08:46:00,54.1,54.1,29.62,WSW,248,1.7,4.9,100,-99.99,,,-99.99,WSDL version 420,2013-11-18 13:46:00,
2013-11-18 08:52:00,54.6,54.5,29.62,SSW,203,2.9,4.9,99,-99.99,,,-99.99,WSDL version 420,2013-11-18 13:52:00,
2013-11-18 08:58:00,54.8,54.5,29.62,SW,233,3.0,3.8,99,-99.99,,,-99.99,WSDL version 420,2013-11-18 13:58:00,
2013-11-18 09:04:00,55.4,54.8,29.62,SSW,195,3.5,4.3,98,-99.99,,,-99.99,WSDL version 420,2013-11-18 14:04:00,
2013-11-18 09:10:00,55.8,55.1,29.62,SSE,165,1.6,4.3,98,-99.99,,,-99.99,WSDL version 420,2013-11-18 14:10:00,
2013-11-18 09:16:00,56.2,55.4,29.62,SSW,203,1.1,4.7,97,-99.99,,,-99.99,WSDL version 420,2013-11-18 14:16:00,
2013-11-18 09:22:00,56.7,55.7,29.62,SSW,208,4.3,5.6,97,-99.99,,,-99.99,WSDL version 420,2013-11-18 14:22:00,
2013-11-18 09:28:00,56.8,55.4,29.62,South,188,2.2,5.6,92,-99.99,,,-99.99,WSDL version 420,2013-11-18 14:28:00,
2013-11-18 09:34:00,57.1,55.7,29.62,WSW,248,2.8,5.4,96,-99.99,,,-99.99,WSDL version 420,2013-11-18 14:34:00,
2013-11-18 09:40:00,57.7,56.4,29.62,WSW,255,2.2,5.4,96,-99.99,,,-99.99,WSDL version 420,2013-11-18 14:40:00,
2013-11-18 09:46:00,57.7,56.2,29.62,SE,135,3.4,3.8,94,-99.99,,,-99.99,WSDL version 420,2013-11-18 14:46:00,
2013-11-18 09:52:00,58.0,56.6,29.62,South,188,1.9,4.9,94,-99.99,,,-99.99,WSDL version 420,2013-11-18 14:52:00,
2013-11-18 09:58:00,58.2,56.0,29.62,SSW,203,4.0,6.0,93,-99.99,,,-99.99,WSDL version 420,2013-11-18 14:58:00,
2013-11-18 10:04:00,58.5,56.5,29.59,South,191,5.5,7.8,91,-99.99,,,-99.99,WSDL version 420,2013-11-18 15:04:00,
2013-11-18 10:10:00,58.7,56.7,29.59,South,180,3.9,7.8,92,-99.99,,,-99.99,WSDL version 420,2013-11-18 15:10:00,
2013-11-18 10:16:00,58.8,56.7,29.59,South,188,1.3,4.9,92,-99.99,,,-99.99,WSDL version 420,2013-11-18 15:16:00,
2013-11-18 10:22:00,59.1,56.8,29.59,SW,218,3.1,4.3,92,-99.99,,,-99.99,WSDL version 420,2013-11-18 15:22:00,
2013-11-18 10:28:00,59.3,56.9,29.59,SSW,197,2.7,5.8,91,-99.99,,,-99.99,WSDL version 420,2013-11-18 15:28:00,
2013-11-18 10:34:00,59.5,56.8,29.59,South,180,2.8,5.8,92,-99.99,,,-99.99,WSDL version 420,2013-11-18 15:34:00,
2013-11-18 10:40:00,59.7,56.6,29.59,West,270,3.4,4.0,90,-99.99,,,-99.99,WSDL version 420,2013-11-18 15:40:00,
2013-11-18 10:46:00,59.7,56.2,29.59,East,98,2.5,8.7,90,-99.99,,,-99.99,WSDL version 420,2013-11-18 15:46:00,
2013-11-18 10:52:00,59.8,56.2,29.59,SSW,210,1.9,6.0,86,-99.99,,,-99.99,WSDL version 420,2013-11-18 15:52:00,
2013-11-18 10:55:00,60.1,56.3,29.59,SE,146,4.8,6.0,89,-99.99,,,-99.99,WSDL version 420,2013-11-18 15:55:00,
2013-11-18 11:00:00,60.3,57.1,29.59,SSE,165,3.5,6.0,90,-99.99,,,-99.99,WSDL version 420,2013-11-18 16:00:00,
2013-11-18 11:06:00,60.4,56.2,29.59,SW,218,3.5,5.6,83,-99.99,,,-99.99,WSDL version 420,2013-11-18 16:06:00,
2013-11-18 11:13:00,60.6,56.6,29.59,SSW,197,3.0,6.3,88,-99.99,,,-99.99,WSDL version 420,2013-11-18 16:13:00,
2013-11-18 11:19:00,60.9,57.9,29.59,SW,225,2.0,4.0,91,-99.99,,,-99.99,WSDL version 420,2013-11-18 16:19:00,
2013-11-18 11:25:00,61.4,57.6,29.59,South,180,2.8,4.0,87,-99.99,,,-99.99,WSDL version 420,2013-11-18 16:25:00,
2013-11-18 11:31:00,61.4,55.7,29.59,West,278,2.9,4.0,81,-99.99,,,-99.99,WSDL version 420,2013-11-18 16:31:00,
2013-11-18 11:37:00,61.2,56.7,29.59,SE,135,1.6,4.0,90,-99.99,,,-99.99,WSDL version 420,2013-11-18 16:37:00,
2013-11-18 11:43:00,61.6,57.2,29.59,SSW,210,3.1,5.4,84,-99.99,,,-99.99,WSDL version 420,2013-11-18 16:43:00,
2013-11-18 11:49:00,61.7,57.9,29.56,SW,225,3.9,6.0,88,-99.99,,,-99.99,WSDL version 420,2013-11-18 16:49:00,
2013-11-18 11:55:00,62.5,57.8,29.56,ENE,75,4.2,8.5,81,-99.99,,,-99.99,WSDL version 420,2013-11-18 16:55:00,
2013-11-18 12:01:00,62.3,55.6,29.56,SSE,158,2.5,8.5,80,-99.99,,,-99.99,WSDL version 420,2013-11-18 17:01:00,
2013-11-18 12:07:00,61.8,52.7,29.56,SSW,195,4.9,7.4,75,-99.99,,,-99.99,WSDL version 420,2013-11-18 17:07:00,
2013-11-18 12:13:00,62.1,55.6,29.56,East,90,2.8,7.4,80,-99.99,,,-99.99,WSDL version 420,2013-11-18 17:13:00,
2013-11-18 12:19:00,62.5,52.0,29.56,South,180,3.1,6.0,75,-99.99,,,-99.99,WSDL version 420,2013-11-18 17:19:00,
2013-11-18 12:25:00,62.6,54.2,29.56,South,180,1.9,3.8,77,-99.99,,,-99.99,WSDL version 420,2013-11-18 17:25:00,
2013-11-18 12:31:00,62.6,52.4,29.56,SW,214,2.8,4.3,73,-99.99,,,-99.99,WSDL version 420,2013-11-18 17:31:00,
2013-11-18 12:37:00,62.6,53.1,29.56,South,188,4.0,4.3,69,-99.99,,,-99.99,WSDL version 420,2013-11-18 17:37:00,
2013-11-18 12:43:00,63.2,51.5,29.56,West,270,3.7,4.0,61,-99.99,,,-99.99,WSDL version 420,2013-11-18 17:43:00,
2013-11-18 12:49:00,63.4,50.0,29.56,SSE,150,3.7,4.0,56,-99.99,,,-99.99,WSDL version 420,2013-11-18 17:49:00,
2013-11-18 12:55:00,63.2,50.2,29.56,SE,143,2.7,4.0,58,-99.99,,,-99.99,WSDL version 420,2013-11-18 17:55:00,
2013-11-18 13:01:00,63.5,48.3,29.56,SSW,210,2.9,5.8,61,-99.99,,,-99.99,WSDL version 420,2013-11-18 18:01:00,
2013-11-18 13:07:00,63.5,45.7,29.56,North,360,2.2,5.8,52,-99.99,,,-99.99,WSDL version 420,2013-11-18 18:07:00,
2013-11-18 13:13:00,63.8,49.6,29.56,South,188,2.6,3.1,54,-99.99,,,-99.99,WSDL version 420,2013-11-18 18:13:00,
2013-11-18 13:19:00,63.5,47.1,29.56,SSE,165,3.3,3.6,53,-99.99,,,-99.99,WSDL version 420,2013-11-18 18:19:00,
2013-11-18 13:25:00,63.7,47.7,29.56,South,169,2.3,3.6,53,-99.99,,,-99.99,WSDL version 420,2013-11-18 18:25:00,
2013-11-18 13:31:00,63.7,47.5,29.56,SSW,203,3.1,3.8,55,-99.99,,,-99.99,WSDL version 420,2013-11-18 18:31:00,
2013-11-18 13:37:00,63.7,48.9,29.56,SE,135,2.0,3.8,56,-99.99,,,-99.99,WSDL version 420,2013-11-18 18:37:00,
2013-11-18 13:43:00,63.6,47.8,29.56,SW,236,2.5,4.3,59,-99.99,,,-99.99,WSDL version 420,2013-11-18 18:43:00,
2013-11-18 13:49:00,63.4,46.1,29.56,SW,231,2.6,4.3,53,-99.99,,,-99.99,WSDL version 420,2013-11-18 18:49:00,
2013-11-18 13:55:00,63.2,46.8,29.56,ESE,120,3.1,3.8,55,-99.99,,,-99.99,WSDL version 420,2013-11-18 18:55:00,
2013-11-18 14:01:00,63.2,46.8,29.56,WSW,248,1.8,3.4,54,-99.99,,,-99.99,WSDL version 420,2013-11-18 19:01:00,
2013-11-18 14:08:00,63.3,47.3,29.56,SW,233,2.5,2.9,54,-99.99,,,-99.99,WSDL version 420,2013-11-18 19:08:00,
2013-11-18 14:14:00,63.0,46.6,29.56,SSW,210,1.6,2.9,54,-99.99,,,-99.99,WSDL version 420,2013-11-18 19:14:00,
2013-11-18 14:20:00,62.7,46.1,29.56,SW,234,2.8,3.8,54,-99.99,,,-99.99,WSDL version 420,2013-11-18 19:20:00,
2013-11-18 14:26:00,62.3,44.3,29.56,WSW,248,2.6,3.8,54,-99.99,,,-99.99,WSDL version 420,2013-11-18 19:26:00,
2013-11-18 14:32:00,61.9,44.3,29.56,SW,233,2.6,3.8,52,-99.99,,,-99.99,WSDL version 420,2013-11-18 19:32:00,
2013-11-18 14:38:00,61.5,44.2,29.56,SSW,210,2.2,3.8,51,-99.99,,,-99.99,WSDL version 420,2013-11-18 19:38:00,
2013-11-18 14:44:00,60.8,44.1,29.56,West,263,1.0,3.4,55,-99.99,,,-99.99,WSDL version 420,2013-11-18 19:44:00,
2013-11-18 14:50:00,60.4,43.2,29.56,SW,218,2.8,5.8,51,-99.99,,,-99.99,WSDL version 420,2013-11-18 19:50:00,
2013-11-18 14:56:00,60.4,42.4,29.56,WSW,242,2.2,5.8,51,-99.99,,,-99.99,WSDL version 420,2013-11-18 19:56:00,
2013-11-18 15:02:00,59.8,42.0,29.56,WSW,255,1.5,4.3,50,-99.99,,,-99.99,WSDL version 420,2013-11-18 20:02:00,
2013-11-18 15:08:00,59.5,40.7,29.56,SW,225,2.3,4.3,50,-99.99,,,-99.99,WSDL version 420,2013-11-18 20:08:00,
2013-11-18 15:14:00,58.7,41.0,29.56,SW,225,2.3,3.4,51,-99.99,,,-99.99,WSDL version 420,2013-11-18 20:14:00,
2013-11-18 15:20:00,58.8,40.5,29.56,SW,225,2.2,3.4,51,-99.99,,,-99.99,WSDL version 420,2013-11-18 20:20:00,
2013-11-18 15:26:00,58.2,40.2,29.56,SSW,210,2.7,3.1,51,-99.99,,,-99.99,WSDL version 420,2013-11-18 20:26:00,
2013-11-18 15:32:00,58.0,39.7,29.56,SW,225,2.6,3.8,50,-99.99,,,-99.99,WSDL version 420,2013-11-18 20:32:00,
2013-11-18 15:38:00,57.3,39.8,29.56,SSW,195,2.5,3.6,52,-99.99,,,-99.99,WSDL version 420,2013-11-18 20:38:00,
2013-11-18 15:44:00,56.7,39.5,29.56,SSW,208,2.0,3.1,53,-99.99,,,-99.99,WSDL version 420,2013-11-18 20:44:00,
2013-11-18 15:50:00,56.4,39.5,29.56,SSW,203,1.6,2.2,53,-99.99,,,-99.99,WSDL version 420,2013-11-18 20:50:00,
2013-11-18 15:56:00,55.9,39.2,29.56,ENE,60,0.3,2.5,53,-99.99,,,-99.99,WSDL version 420,2013-11-18 20:56:00,
2013-11-18 16:02:00,55.6,38.7,29.56,East,90,1.3,2.9,53,-99.99,,,-99.99,WSDL version 420,2013-11-18 21:02:00,
2013-11-18 16:08:00,55.6,38.1,29.56,SSW,195,2.3,2.9,52,-99.99,,,-99.99,WSDL version 420,2013-11-18 21:08:00,
2013-11-18 16:14:00,54.9,37.9,29.56,SW,219,2.0,3.1,53,-99.99,,,-99.99,WSDL version 420,2013-11-18 21:14:00,
2013-11-18 16:20:00,54.7,37.6,29.59,WSW,248,1.0,3.1,53,-99.99,,,-99.99,WSDL version 420,2013-11-18 21:20:00,
2013-11-18 16:26:00,54.1,37.4,29.59,North,353,1.6,2.5,53,-99.99,,,-99.99,WSDL version 420,2013-11-18 21:26:00,
2013-11-18 16:32:00,53.6,37.1,29.59,SSE,158,1.8,2.5,54,-99.99,,,-99.99,WSDL version 420,2013-11-18 21:32:00,
2013-11-18 16:38:00,53.4,36.7,29.59,ESE,120,1.4,2.9,52,-99.99,,,-99.99,WSDL version 420,2013-11-18 21:38:00,
2013-11-18 16:46:00,53.2,36.6,29.59,West,270,2.5,3.6,53,-99.99,,,-99.99,WSDL version 420,2013-11-18 21:46:00,
2013-11-18 16:52:00,53.0,36.3,29.59,SW,225,2.2,3.6,53,-99.99,,,-99.99,WSDL version 420,2013-11-18 21:52:00,
2013-11-18 16:58:00,52.8,36.1,29.59,SSW,195,2.5,3.1,53,-99.99,,,-99.99,WSDL version 420,2013-11-18 21:58:00,
2013-11-18 17:04:00,52.4,35.6,29.62,WSW,240,1.8,3.1,52,-99.99,,,-99.99,WSDL version 420,2013-11-18 22:04:00,
2013-11-18 17:10:00,52.2,35.6,29.62,WNW,293,0.0,2.5,53,-99.99,,,-99.99,WSDL version 420,2013-11-18 22:10:00,
2013-11-18 17:16:00,52.3,35.2,29.62,SW,231,2.6,3.8,52,-99.99,,,-99.99,WSDL version 420,2013-11-18 22:16:00,
2013-11-18 17:22:00,52.0,35.3,29.62,WSW,248,2.7,3.8,53,-99.99,,,-99.99,WSDL version 420,2013-11-18 22:22:00,
2013-11-18 17:29:00,51.8,35.1,29.62,SSE,165,2.3,3.1,53,-99.99,,,-99.99,WSDL version 420,2013-11-18 22:29:00,
2013-11-18 17:35:00,51.6,34.8,29.62,SSW,203,2.5,4.9,53,-99.99,,,-99.99,WSDL version 420,2013-11-18 22:35:00,
2013-11-18 17:41:00,51.2,34.4,29.62,West,270,1.7,3.6,53,-99.99,,,-99.99,WSDL version 420,2013-11-18 22:41:00,
2013-11-18 17:47:00,50.8,34.0,29.62,South,180,2.5,2.9,52,-99.99,,,-99.99,WSDL version 420,2013-11-18 22:47:00,
2013-11-18 17:53:00,50.7,33.5,29.62,SW,225,2.3,4.3,52,-99.99,,,-99.99,WSDL version 420,2013-11-18 22:53:00,
2013-11-18 17:59:00,50.7,33.7,29.62,ENE,68,1.0,4.3,52,-99.99,,,-99.99,WSDL version 420,2013-11-18 22:59:00,
2013-11-18 18:05:00,50.2,33.3,29.65,NW,315,1.3,2.0,52,-99.99,,,-99.99,WSDL version 420,2013-11-18 23:05:00,
2013-11-18 18:11:00,50.4,33.1,29.65,WNW,285,2.2,2.9,52,-99.99,,,-99.99,WSDL version 420,2013-11-18 23:11:00,
2013-11-18 18:17:00,50.2,33.0,29.65,NW,315,2.7,2.9,51,-99.99,,,-99.99,WSDL version 420,2013-11-18 23:17:00,
2013-11-18 18:23:00,50.0,33.1,29.65,SW,225,2.2,2.7,52,-99.99,,,-99.99,WSDL version 420,2013-11-18 23:23:00,
2013-11-18 18:29:00,49.6,33.0,29.65,SW,236,1.7,2.5,53,-99.99,,,-99.99,WSDL version 420,2013-11-18 23:29:00,
2013-11-18 18:35:00,49.6,33.0,29.65,WSW,248,1.1,2.2,53,-99.99,,,-99.99,WSDL version 420,2013-11-18 23:35:00,
2013-11-18 18:41:00,49.3,32.7,29.65,WSW,248,1.0,1.6,53,-99.99,,,-99.99,WSDL version 420,2013-11-18 23:41:00,
2013-11-18 18:47:00,48.9,32.5,29.65,SW,225,1.3,1.6,53,-99.99,,,-99.99,WSDL version 420,2013-11-18 23:47:00,
2013-11-18 18:53:00,48.7,32.4,29.65,SSW,210,1.9,2.0,53,-99.99,,,-99.99,WSDL version 420,2013-11-18 23:53:00,
2013-11-18 18:59:00,48.7,32.4,29.65,WNW,285,0.4,2.0,53,-99.99,,,-99.99,WSDL version 420,2013-11-18 23:59:00,
2013-11-18 19:05:00,48.7,32.4,29.65,WNW,293,1.6,1.6,53,-99.99,,,-99.99,WSDL version 420,2013-11-19 00:05:00,
2013-11-18 19:11:00,48.5,32.2,29.65,WSW,248,2.0,2.5,53,-99.99,,,-99.99,WSDL version 420,2013-11-19 00:11:00,
2013-11-18 19:17:00,48.2,32.2,29.65,WSW,248,1.8,2.5,54,-99.99,,,-99.99,WSDL version 420,2013-11-19 00:17:00,
2013-11-18 19:23:00,48.1,32.0,29.65,WSW,248,1.3,2.2,54,-99.99,,,-99.99,WSDL version 420,2013-11-19 00:23:00,
2013-11-18 19:29:00,47.9,32.1,29.65,SW,225,1.3,2.2,54,-99.99,,,-99.99,WSDL version 420,2013-11-19 00:29:00,
2013-11-18 19:35:00,47.8,32.0,29.65,SW,225,2.0,2.0,54,-99.99,,,-99.99,WSDL version 420,2013-11-19 00:35:00,
2013-11-18 19:41:00,47.9,32.1,29.65,SW,225,2.2,2.5,54,-99.99,,,-99.99,WSDL version 420,2013-11-19 00:41:00,
2013-11-18 19:47:00,47.7,32.3,29.65,SSW,208,2.3,2.5,55,-99.99,,,-99.99,WSDL version 420,2013-11-19 00:47:00,
2013-11-18 19:53:00,47.7,32.1,29.65,SW,225,2.5,2.5,55,-99.99,,,-99.99,WSDL version 420,2013-11-19 00:53:00,
2013-11-18 19:59:00,47.7,32.1,29.65,SW,225,2.2,2.5,55,-99.99,,,-99.99,WSDL version 420,2013-11-19 00:59:00,
2013-11-18 20:05:00,47.7,32.3,29.65,SW,225,2.5,2.7,55,-99.99,,,-99.99,WSDL version 420,2013-11-19 01:05:00,
2013-11-18 20:12:00,47.9,32.1,29.65,SW,236,2.5,2.9,53,-99.99,,,-99.99,WSDL version 420,2013-11-19 01:12:00,
2013-11-18 20:18:00,48.0,32.2,29.65,SW,225,2.3,3.1,54,-99.99,,,-99.99,WSDL version 420,2013-11-19 01:18:00,
2013-11-18 20:24:00,48.0,32.2,29.65,SW,236,2.3,3.6,54,-99.99,,,-99.99,WSDL version 420,2013-11-19 01:24:00,
2013-11-18 20:30:00,48.6,32.2,29.65,WSW,240,2.8,3.6,53,-99.99,,,-99.99,WSDL version 420,2013-11-19 01:30:00,
2013-11-18 20:36:00,48.7,32.4,29.68,SW,218,2.0,3.6,53,-99.99,,,-99.99,WSDL version 420,2013-11-19 01:36:00,
2013-11-18 20:42:00,49.0,32.2,29.68,SW,236,2.2,3.8,51,-99.99,,,-99.99,WSDL version 420,2013-11-19 01:42:00,
2013-11-18 20:48:00,49.0,32.3,29.68,WSW,255,2.1,2.9,53,-99.99,,,-99.99,WSDL version 420,2013-11-19 01:48:00,
2013-11-18 20:54:00,48.2,32.0,29.68,South,186,1.3,2.9,54,-99.99,,,-99.99,WSDL version 420,2013-11-19 01:54:00,
2013-11-18 21:00:00,48.4,32.0,29.68,West,263,1.9,4.7,52,-99.99,,,-99.99,WSDL version 420,2013-11-19 02:00:00,
2013-11-18 21:06:00,49.1,32.2,29.68,NE,34,3.5,7.6,52,-99.99,,,-99.99,WSDL version 420,2013-11-19 02:06:00,
2013-11-18 21:12:00,49.6,32.2,29.68,ESE,120,3.2,6.0,51,-99.99,,,-99.99,WSDL version 420,2013-11-19 02:12:00,
2013-11-18 21:18:00,49.8,32.4,29.68,SSW,210,4.1,5.6,51,-99.99,,,-99.99,WSDL version 420,2013-11-19 02:18:00,
2013-11-18 21:24:00,49.8,32.4,29.71,WNW,293,1.6,4.7,51,-99.99,,,-99.99,WSDL version 420,2013-11-19 02:24:00,
2013-11-18 21:30:00,49.6,32.3,29.71,ENE,68,2.8,5.8,51,-99.99,,,-99.99,WSDL version 420,2013-11-19 02:30:00,
2013-11-18 21:36:00,49.2,32.3,29.71,SSW,208,2.3,5.8,52,-99.99,,,-99.99,WSDL version 420,2013-11-19 02:36:00,
2013-11-18 21:42:00,48.7,32.1,29.71,NNE,15,2.3,3.4,52,-99.99,,,-99.99,WSDL version 420,2013-11-19 02:42:00,
2013-11-18 21:48:00,48.9,31.9,29.71,ENE,60,1.4,5.8,51,-99.99,,,-99.99,WSDL version 420,2013-11-19 02:48:00,
2013-11-18 21:54:00,48.7,31.4,29.71,WNW,293,0.0,5.8,51,-99.99,,,-99.99,WSDL version 420,2013-11-19 02:54:00,
2013-11-18 22:00:00,47.8,30.9,29.71,SSW,195,1.6,5.8,52,-99.99,,,-99.99,WSDL version 420,2013-11-19 03:00:00,
2013-11-18 22:06:00,47.3,30.6,29.71,West,279,3.3,5.8,52,-99.99,,,-99.99,WSDL version 420,2013-11-19 03:06:00,
2013-11-18 22:12:00,47.5,29.9,29.71,WSW,255,1.9,5.8,50,-99.99,,,-99.99,WSDL version 420,2013-11-19 03:12:00,
2013-11-18 22:18:00,46.8,29.6,29.71,ESE,105,0.5,5.6,51,-99.99,,,-99.99,WSDL version 420,2013-11-19 03:18:00,
2013-11-18 22:24:00,46.6,29.3,29.71,South,180,5.8,5.8,50,-99.99,,,-99.99,WSDL version 420,2013-11-19 03:24:00,
2013-11-18 22:30:00,46.7,28.7,29.71,WNW,300,3.1,6.0,50,-99.99,,,-99.99,WSDL version 420,2013-11-19 03:30:00,
2013-11-18 22:36:00,46.1,28.3,29.71,South,180,3.1,6.0,49,-99.99,,,-99.99,WSDL version 420,2013-11-19 03:36:00,
2013-11-18 22:42:00,45.6,28.2,29.71,SSE,158,3.0,5.4,51,-99.99,,,-99.99,WSDL version 420,2013-11-19 03:42:00,
2013-11-18 22:48:00,45.7,28.1,29.71,SSE,158,1.6,4.0,50,-99.99,,,-99.99,WSDL version 420,2013-11-19 03:48:00,
2013-11-18 22:54:00,45.6,27.8,29.71,SSE,165,4.1,5.4,49,-99.99,,,-99.99,WSDL version 420,2013-11-19 03:54:00,
2013-11-18 23:00:00,45.9,27.8,29.71,WSW,240,3.6,5.4,49,-99.99,,,-99.99,WSDL version 420,2013-11-19 04:00:00,
2013-11-18 23:06:00,45.4,27.9,29.71,ENE,75,1.6,3.8,50,-99.99,,,-99.99,WSDL version 420,2013-11-19 04:06:00,
2013-11-18 23:08:00,45.3,27.8,29.71,ESE,108,1.8,3.8,50,-99.99,,,-99.99,WSDL version 420,2013-11-19 04:08:00,
2013-11-18 23:14:00,44.9,27.2,29.71,WSW,248,3.4,3.8,49,-99.99,,,-99.99,WSDL version 420,2013-11-19 04:14:00,
2013-11-18 23:20:00,45.2,27.5,29.71,SSW,203,4.2,5.8,50,-99.99,,,-99.99,WSDL version 420,2013-11-19 04:20:00,
2013-11-18 23:26:00,44.8,27.2,29.71,ESE,105,2.9,6.0,50,-99.99,,,-99.99,WSDL version 420,2013-11-19 04:26:00,
2013-11-18 23:32:00,45.0,27.1,29.71,WNW,300,5.7,8.7,49,-99.99,,,-99.99,WSDL version 420,2013-11-19 04:32:00,
2013-11-18 23:38:00,44.8,27.2,29.71,WSW,248,3.1,8.7,50,-99.99,,,-99.99,WSDL version 420,2013-11-19 04:38:00,
2013-11-18 23:44:00,45.0,27.1,29.71,SSW,210,3.1,5.8,49,-99.99,,,-99.99,WSDL version 420,2013-11-19 04:44:00,
2013-11-18 23:50:00,44.6,26.9,29.71,South,185,1.9,5.4,49,-99.99,,,-99.99,WSDL version 420,2013-11-19 04:50:00,
2013-11-18 23:56:00,44.2,26.8,29.71,SSE,158,1.8,3.8,50,-99.99,,,-99.99,WSDL version 420,2013-11-19 04:56:00,